Location: Spring Creek
(38.2870°N, 100.2160°W)
Time: 12:17:54
(UTC+00:00)

Cosmos 1459 Rocket - Pass Details

Date: 08 May 2021
Orbit: 936 x 1000 km, 83.0° (Epoch: 22 June)

Event Time Altitude Azimuth Distance (km) Brightness Sun altitude
Rises 09:33:55 0° 345° (NNW) 3,701 7.4 -20.8°
Reaches altitude 10° 09:36:36 10° 338° (NNW) 2,740 6.6 -20.4°
Maximum altitude 09:42:23 41° 271° (W) 1,380 4.4 -19.6°
Enters shadow 09:44:13 33° 233° (SW) 1,567 4.5 -19.3°
